Weather History for Sfax El-Maou, Tunisia

Change the Weather History Date:

Tuesday, February 12, 2013

  Actual Average Record
Temperature  
Mean Temperature 51 °F -  
Max Temperature 58 °F 65 °F - ()
Min Temperature 42 °F 45 °F - ()
Degree Days  
Heating Degree Days 14    
Growing Degree Days 1 (Base 50)    
Moisture  
Dew Point 34 °F    
Average Humidity 51    
Maximum Humidity 87    
Minimum Humidity 27    
Precipitation  
Precipitation 0.00 in 0.03 in - ()
Sea Level Pressure  
Sea Level Pressure 29.78 in    
Wind  
Wind Speed 11 mph ()    
Max Wind Speed 18 mph    
Max Gust Speed -    
Visibility 5.2 miles    
Events      
T = Trace of Precipitation, MM = Missing Value Source: Averaged Metar Reports

Daily Weather History Graph

Daily Weather History Graph

Search for Another Location

Airport:

Trip Planner

Search our weather history database for the weather conditions in past years. The results will help you decide how hot, cold, wet, or windy it might be!

Date:

Astronomy

Feb. 12, 2013 Rise Set
Actual Time 7:05 AM CET 5:57 PM CET
Civil Twilight 6:39 AM CET 6:23 PM CET
Nautical Twilight 6:10 AM CET 6:53 PM CET
Astronomical Twilight 5:40 AM CET 7:22 PM CET
Moon 8:02 AM CET (2/12) 8:31 PM CET (2/12)
Length of Visible Light 11h 43m
Length of Day
10h 51m
Waxing Crescent, 6% of the Moon is Illuminated
Feb 12
Waxing Crescent
Feb 17
First Quarter
Feb 25
Full
Mar 4
Last Quarter
Mar 11
New

Hourly Weather History & Observations

Time (CET) Temp. Windchill Dew Point Humidity Pressure Visibility Wind Dir Wind Speed Gust Speed Precip Events Conditions
12:00 AM 57.2 °F - 32.0 °F 38% 29.80 in 4.3 mi SW 18.4 mph - N/A   Scattered Clouds
1:00 AM 56 °F - 31 °F 27% 29.78 in 4 mi SW 16.1 mph - -   Scattered Clouds
1:00 AM 55.4 °F - 32.0 °F 41% 29.77 in 4.3 mi SW 16.1 mph - N/A   Scattered Clouds
2:00 AM 55.4 °F - 28.4 °F 36% 29.77 in 4.3 mi SW 17.3 mph - N/A   Scattered Clouds
3:00 AM 53.6 °F - 21.2 °F 28% 29.74 in 4.3 mi SW 15.0 mph - N/A   Scattered Clouds
4:00 AM 52 °F - 28 °F 27% 29.74 in 4 mi WSW 11.5 mph - -   Scattered Clouds
4:00 AM 51.8 °F - 28.4 °F 41% 29.71 in 4.3 mi WSW 11.5 mph - N/A   Scattered Clouds
5:00 AM 51.8 °F - 30.2 °F 44% 29.71 in 4.3 mi WSW 9.2 mph - N/A   Scattered Clouds
6:00 AM 50.0 °F - 32.0 °F 50% 29.71 in 4.3 mi WSW 5.8 mph - N/A   Scattered Clouds
7:00 AM 53 °F - 36 °F 41% 29.73 in 4 mi West 12.7 mph - -   Partly Cloudy
7:00 AM 51.8 °F - 35.6 °F 54% 29.71 in 4.3 mi West 12.7 mph - N/A   Scattered Clouds
8:00 AM 50.0 °F - 39.2 °F 66% 29.74 in 4.3 mi WSW 15.0 mph - N/A   Scattered Clouds
9:00 AM 46.4 °F 41.9 °F 42.8 °F 87% 29.77 in 4.3 mi NW 9.2 mph - N/A   Scattered Clouds
10:00 AM 47 °F - 43 °F 81% 29.78 in 4 mi WSW 6.9 mph - -   Partly Cloudy
10:00 AM 46.4 °F 42.9 °F 42.8 °F 87% 29.77 in 4.3 mi WSW 6.9 mph - N/A   Mostly Cloudy
11:00 AM 51.8 °F - 42.8 °F 71% 29.77 in 6.2 mi WSW 9.2 mph - N/A   Scattered Clouds
12:00 PM 55.4 °F - 35.6 °F 47% 29.77 in 6.2 mi WNW 13.8 mph - N/A   Scattered Clouds
1:00 PM 57 °F - 34 °F 30% 29.77 in 6 mi WNW 10.4 mph - -   Partly Cloudy
1:00 PM 57.2 °F - 33.8 °F 41% 29.74 in 6.2 mi WNW 10.4 mph - N/A   Scattered Clouds
2:00 PM 57.2 °F - 30.2 °F 36% 29.74 in 6.2 mi WNW 12.7 mph - N/A   Scattered Clouds
3:00 PM 55.4 °F - 32.0 °F 41% 29.77 in 6.2 mi WNW 16.1 mph - N/A   Scattered Clouds
4:00 PM 54 °F - 37 °F 40% 29.80 in 6 mi NNW 9.2 mph - -   Mostly Cloudy
4:00 PM 53.6 °F - 37.4 °F 54% 29.80 in 6.2 mi NNW 9.2 mph - N/A   Scattered Clouds
5:00 PM 53.6 °F - 35.6 °F 51% 29.80 in 6.2 mi WNW 9.2 mph - N/A   Scattered Clouds
6:00 PM 51.8 °F - 35.6 °F 54% 29.80 in 6.2 mi WNW 3.5 mph - N/A   Scattered Clouds
7:00 PM 48 °F - 35 °F 49% 29.84 in 6 mi West 5.8 mph - -   Partly Cloudy
7:00 PM 48.2 °F - 35.6 °F 62% 29.83 in 6.2 mi WSW 5.8 mph - N/A   Scattered Clouds
8:00 PM 46.4 °F 42.9 °F 35.6 °F 66% 29.86 in 6.2 mi WSW 6.9 mph - N/A   Scattered Clouds
9:00 PM 48.2 °F - 33.8 °F 58% 29.86 in 6.2 mi West 4.6 mph - N/A   Scattered Clouds
10:00 PM 44 °F - 33 °F 55% 29.88 in 6 mi West 4.6 mph - -   Partly Cloudy
10:00 PM 44.6 °F 42.2 °F 33.8 °F 66% 29.86 in 6.2 mi West 4.6 mph - N/A   Scattered Clouds
11:00 PM 42.8 °F 38.0 °F 33.8 °F 70% 29.86 in 6.2 mi WSW 8.1 mph - N/A   Partly Cloudy